GFSSGP_925_temp_120.txt.gz
Temp
18 19 19 19 18 15 18 20 18 21 20 18 18 19 17 16 19 19 18 18 18 19 20 21 21 21 21 20 20 20 21 20 20 20 20 19 19 19 20 20 19 19 19 19 19 19 18 19 18
18 19 19 13 16 17 18 18 20 20 18 17 17 18 17 17 17 18 18 18 18 18 20 21 21 21 21 20 20 20 20 20 20 19 19 19 19 19 19 19 19 19 19 19 19 19 19 19 18
18 19 16 14 13 18 18 19 19 19 18 20 18 16 17 17 17 18 18 18 18 19 19 19 20 20 20 20 20 20 20 20 20 19 19 19 19 19 19 19 19 19 19 19 19 19 19 19 19
18 16 13 16 18 18 18 19 19 20 19 18 17 16 17 17 17 18 18 18 19 19 19 19 19 19 20 19 20 20 20 20 19 19 19 19 19 19 19 19 19 19 19 19 19 19 19 19 19
17 13 14 16 17 17 17 17 18 19 19 17 18 16 17 18 17 18 18 18 19 19 19 19 18 18 18 19 19 19 19 19 19 19 20 20 19 19 19 19 19 19 19 19 19 19 19 19 19
14 13 15 15 17 17 17 16 18 17 17 18 17 16 16 17 18 18 18 18 18 19 19 19 19 19 18 18 18 18 19 19 19 19 19 19 19 19 19 19 19 19 19 19 19 19 18 19 18
15 13 15 14 15 18 18 16 17 17 17 17 16 16 16 17 17 18 18 18 18 18 18 18 18 18 18 19 18 18 18 18 18 18 18 19 19 19 19 19 19 19 19 19 19 19 19 18 18
12 13 15 15 15 18 17 17 16 17 18 17 17 15 16 17 17 18 18 17 17 17 17 17 17 18 18 18 18 18 18 18 18 18 18 18 18 18 19 19 19 19 19 19 19 19 19 18 18
14 13 14 15 16 17 17 17 16 16 17 16 14 15 16 16 17 17 17 16 16 16 16 16 16 17 17 17 18 18 18 18 18 17 18 18 18 18 18 18 19 19 19 18 18 18 18 18 18
13 13 15 15 15 15 15 16 16 17 17 16 15 15 16 16 15 14 13 13 14 14 14 14 15 15 15 16 16 17 17 18 18 18 17 17 18 18 18 18 18 18 19 18 18 18 18 18 18
14 15 14 14 15 16 15 15 14 15 17 16 15 16 15 14 13 12 12 12 12 12 13 13 14 14 14 15 15 16 16 16 17 17 17 17 17 17 17 17 18 18 18 18 18 18 18 18 18
14 14 15 14 14 15 15 15 15 15 16 14 15 15 14 11 11 11 11 11 12 12 12 13 13 13 13 14 14 14 15 15 16 16 16 16 17 17 17 17 17 17 18 18 18 18 18 19 18
13 13 13 13 13 13 14 13 14 14 13 14 14 13 11 10 10 10 11 11 11 12 12 12 12 12 12 13 13 14 14 14 14 15 16 16 16 16 16 16 17 17 17 17 17 18 18 19 19
12 12 13 12 13 12 15 13 13 15 13 13 14 11 10 10 10 10 10 10 11 11 11 11 11 11 11 12 12 13 13 13 13 14 14 15 15 15 15 15 15 16 16 17 17 17 18 18 18
12 13 13 12 13 13 12 15 14 14 14 13 12 11 9 9 10 9 9 10 10 10 10 10 9 9 10 11 11 11 11 11 12 13 13 14 15 15 15 15 15 15 15 16 16 17 16 16 16
12 11 13 13 13 13 14 16 15 13 13 13 11 10 10 10 9 9 9 9 9 9 9 9 9 9 10 10 10 10 10 10 11 11 12 13 14 15 14 14 14 15 15 15 15 16 16 16 16
9 9 13 14 13 13 13 15 14 12 13 12 11 10 9 9 9 9 9 9 9 9 8 8 8 8 9 9 9 9 9 9 10 10 11 11 12 12 12 13 13 13 13 14 15 15 15 15 15
12 10 13 14 13 13 12 11 12 12 12 11 9 9 9 9 9 9 9 9 9 9 9 8 8 8 9 9 9 9 9 9 10 10 9 10 11 11 11 11 12 13 13 13 13 14 14 14 15
10 11 12 12 13 12 12 10 11 11 10 10 9 8 8 8 8 9 9 9 9 8 8 7 7 8 8 9 8 8 10 9 10 9 9 10 9 9 9 10 11 11 12 12 12 13 13 13 12
11 11 11 12 13 12 11 10 11 11 11 10 10 8 7 8 7 8 8 8 8 7 7 7 7 7 7 7 8 8 8 8 8 8 8 8 7 8 9 9 9 10 9 9 11 11 12 12 12
10 11 12 10 12 11 9 11 13 13 12 11 10 8 7 7 7 7 8 7 7 7 7 7 6 6 6 7 8 9 8 7 6 8 8 7 8 8 9 8 8 8 9 8 8 8 9 10 10
12 12 12 12 9 9 9 11 12 12 11 11 9 8 7 7 7 7 7 7 7 6 6 6 6 6 7 7 8 7 6 6 6 6 6 7 7 8 8 8 8 8 7 7 7 7 7 8 7
11 12 11 11 9 8 11 7 11 11 12 11 9 7 6 6 6 6 7 7 7 6 7 7 7 7 7 7 7 7 7 6 7 7 7 7 7 7 7 8 8 8 7 7 6 6 7 6 6
11 11 9 8 8 8 10 9 11 12 13 14 11 8 7 6 5 6 7 7 6 7 7 7 7 7 7 7 7 7 7 7 7 6 6 6 6 6 6 7 7 7 7 7 7 6 6 6 5
10 8 5 8 7 9 9 9 11 13 12 13 12 9 6 6 5 5 5 6 6 7 7 7 7 7 7 7 7 7 7 7 6 6 6 6 6 5 5 5 5 5 6 6 6 5 5 4 4
10 9 6 10 9 8 9 9 12 11 10 10 10 9 6 6 5 5 6 6 7 7 7 7 7 7 7 7 7 7 7 6 6 6 6 6 6 5 5 5 5 4 5 5 5 5 5 5 4
10 8 10 7 7 10 6 9 10 10 10 9 8 7 6 6 5 5 6 6 7 7 7 7 7 7 7 7 7 7 6 6 6 6 6 6 5 5 4 4 3 3 3 3 3 3 3 3 3
12 10 9 6 9 10 8 8 10 11 12 10 8 7 7 6 5 4 5 6 7 7 7 7 7 7 7 7 6 6 6 6 6 6 6 5 5 5 4 4 4 3 3 3 2 2 2 2 2
11 10 9 8 8 8 10 12 9 11 12 12 11 9 7 6 5 5 5 7 7 7 7 7 7 7 7 7 7 6 6 6 5 5 5 5 4 4 4 4 3 3 3 3 2 2 1 1 1
11 10 9 9 10 8 8 10 12 11 11 11 10 9 7 6 5 5 5 6 7 7 7 7 8 7 7 7 7 7 6 5 5 5 4 4 4 3 3 2 2 2 2 2 1 1 1 1 0

GFSSGP_925_temp_123.txt.gz
Temp
17 18 19 19 22 20 20 21 19 21 21 18 19 21 21 17 20 22 18 18 18 18 20 21 21 21 21 21 20 20 20 20 20 20 20 19 19 19 19 19 19 19 19 19 19 18 18 19 19
17 18 19 16 20 22 22 19 20 20 19 18 19 19 19 18 18 18 18 18 18 18 19 20 20 20 20 20 20 20 20 20 20 20 19 19 19 19 19 19 19 19 19 19 19 19 19 19 19
18 18 18 18 17 22 21 19 19 19 18 19 19 18 18 18 18 18 17 18 18 19 18 18 19 19 19 19 19 20 20 20 20 20 20 19 19 19 19 19 19 19 19 19 19 19 19 19 19
17 17 16 20 20 18 19 19 19 19 19 19 18 18 17 17 17 17 18 18 18 18 19 19 18 18 18 19 19 19 19 19 19 19 19 20 20 19 19 19 19 19 19 20 19 19 19 19 19
17 16 17 17 17 18 18 18 18 19 18 18 18 17 17 17 17 18 18 18 18 18 19 19 19 18 18 18 18 18 19 19 19 19 19 19 19 19 19 19 19 19 19 19 19 19 19 19 19
16 15 18 18 17 17 17 17 18 18 18 18 18 17 17 17 17 17 17 17 17 18 18 18 18 18 18 18 18 18 18 18 19 19 18 18 19 18 19 19 19 19 19 19 19 19 19 19 19
16 16 16 15 17 18 18 17 18 18 18 18 17 17 17 16 17 17 17 16 17 17 17 17 17 18 18 18 18 18 18 18 18 18 18 18 18 18 18 18 18 19 19 18 18 19 19 18 18
13 15 15 15 17 19 17 17 16 18 17 16 16 17 17 16 16 16 16 16 16 16 16 16 16 17 17 17 18 18 18 18 18 18 18 18 18 18 18 18 18 18 18 19 18 18 18 18 18
13 15 15 15 16 17 16 17 16 16 17 16 15 16 15 15 16 16 16 15 15 15 15 15 15 16 16 16 17 17 17 18 18 18 18 17 17 18 18 18 18 18 18 18 18 18 18 18 18
14 15 16 15 15 16 16 17 16 17 16 16 16 15 15 15 15 14 13 12 13 13 14 14 14 14 15 15 16 16 16 17 17 17 17 17 17 17 17 17 18 18 18 18 18 18 18 18 17
14 16 14 14 15 15 15 15 15 16 17 16 16 15 14 12 12 12 11 11 11 12 12 13 13 13 14 14 15 15 15 16 16 16 16 17 17 17 17 17 17 17 18 18 18 18 18 18 17
14 13 14 14 14 15 15 15 15 15 16 15 15 14 13 12 11 11 10 11 11 12 12 12 12 12 13 13 14 14 14 15 15 15 15 16 16 16 16 15 15 16 17 17 17 17 18 17 17
13 13 13 12 13 13 14 13 14 15 14 13 13 13 12 11 10 10 10 10 11 11 11 11 11 11 12 12 13 13 13 13 14 14 14 15 15 15 16 16 16 16 16 16 16 16 17 17 17
12 12 12 12 12 12 15 13 14 15 13 13 13 12 11 11 10 10 10 10 10 10 10 10 10 10 11 11 12 11 12 12 12 13 13 14 14 14 15 15 15 15 15 16 16 16 16 16 16
12 13 13 12 13 12 12 16 15 14 12 13 12 11 10 10 9 9 9 10 10 10 10 10 9 9 10 10 10 10 10 10 10 11 11 12 13 13 14 14 14 14 14 14 14 14 16 16 16
12 12 15 13 13 12 15 18 15 13 12 12 12 11 10 10 9 9 9 10 10 9 9 9 9 9 10 10 9 9 9 9 9 9 10 10 11 11 12 12 12 12 12 13 13 14 14 15 15
11 12 14 14 13 13 14 16 14 12 12 13 12 11 11 10 9 8 9 9 9 9 9 9 9 9 9 10 10 9 9 9 10 10 9 10 10 10 11 10 11 12 12 13 13 13 13 14 14
13 12 13 14 13 13 13 13 12 12 12 13 12 11 11 10 10 9 9 9 9 8 8 8 8 9 9 10 10 9 10 10 10 10 9 10 9 10 10 10 12 12 12 12 13 13 13 13 13
10 12 12 12 12 12 12 11 12 13 11 12 11 10 10 10 9 9 9 9 9 9 9 8 8 8 9 9 8 8 8 8 9 9 9 10 9 9 9 9 10 10 10 10 10 12 12 12 13
11 12 11 12 12 12 11 12 13 12 12 12 12 11 10 9 9 8 8 9 9 8 8 7 7 8 8 8 8 7 7 7 7 8 8 8 9 9 9 9 10 10 9 9 10 9 10 11 11
9 11 11 11 11 11 10 13 13 13 11 11 10 10 9 10 9 8 8 8 8 8 8 7 7 8 8 8 8 8 7 8 8 7 8 7 8 8 9 8 8 9 9 8 8 8 7 9 9
12 11 11 11 11 13 9 15 13 13 12 11 11 9 9 8 8 8 8 7 7 7 7 7 7 7 7 8 8 8 7 6 6 6 7 7 8 8 8 7 7 7 7 7 7 7 7 7 7
11 11 11 10 10 10 11 11 14 11 13 13 11 9 8 8 8 8 7 8 7 7 7 7 7 7 7 7 7 7 7 7 7 7 7 7 7 7 7 8 8 7 7 6 6 6 6 5 5
10 10 9 8 9 11 10 11 14 14 14 14 11 10 8 7 7 7 7 7 7 7 7 7 7 7 7 7 7 7 7 7 7 6 6 6 6 6 6 7 7 7 6 6 5 5 5 5 4
10 9 8 11 10 12 9 10 14 14 12 13 13 11 8 7 7 7 6 6 6 7 7 7 7 7 7 7 7 7 7 7 7 6 6 6 6 5 5 5 6 6 6 6 6 5 5 4 3
9 10 9 13 12 11 9 11 15 12 10 10 10 9 8 7 7 7 6 6 7 7 7 7 7 7 7 7 7 7 7 7 7 6 5 5 5 5 5 5 5 5 5 5 5 5 4 4 3
10 10 10 8 7 9 9 10 12 11 10 10 10 9 8 7 7 7 6 6 7 7 7 7 7 7 7 7 7 7 7 7 6 5 5 5 5 5 4 4 4 4 3 3 3 3 4 3 3
12 10 10 8 11 13 11 10 12 12 12 11 10 9 8 7 7 6 6 6 7 7 8 7 7 8 8 8 7 7 7 6 6 5 5 5 5 5 4 4 3 3 3 3 2 2 2 2 2
10 10 9 9 9 11 12 15 10 11 13 13 11 10 9 8 7 6 6 7 7 8 8 8 7 7 7 8 7 7 7 6 6 6 5 5 5 4 4 3 3 3 2 2 2 1 1 1 1
10 10 9 11 10 8 9 12 12 10 10 10 10 9 8 7 7 7 6 6 7 7 7 7 8 8 8 8 7 7 6 6 6 5 5 5 4 4 4 3 3 3 2 2 2 1 1 1 0

GFSSGP_925_temp_126.txt.gz
Temp
17 17 19 23 27 28 28 26 26 26 26 24 25 26 26 24 25 25 20 18 18 19 19 20 20 20 20 20 20 20 20 20 20 20 20 20 19 19 20 20 20 19 19 19 19 19 19 19 19
17 18 21 25 28 29 29 26 26 26 24 24 24 24 24 22 22 21 21 18 19 19 19 18 19 19 20 20 20 20 20 20 20 20 20 19 19 19 19 19 19 19 19 19 19 19 19 19 19
18 18 25 27 28 30 29 26 26 24 23 24 23 23 23 21 21 21 19 18 19 19 18 18 19 19 19 19 19 19 19 19 19 19 19 19 19 19 19 19 19 19 19 19 19 19 19 19 19
20 22 23 27 28 24 26 26 25 23 23 23 24 22 21 19 21 19 18 18 18 18 18 18 18 18 18 18 18 19 19 19 19 19 19 19 19 19 19 19 19 19 19 19 19 19 19 19 19
20 24 25 26 25 23 24 24 25 24 24 24 23 22 20 19 18 18 17 17 18 17 17 17 18 18 18 18 18 18 19 19 19 19 19 19 19 19 19 19 19 19 19 19 19 19 18 18 18
22 24 26 26 25 23 23 23 24 25 24 22 23 23 21 19 19 16 16 16 16 16 16 16 17 18 18 18 18 18 18 19 19 18 18 19 19 19 19 19 19 19 19 19 18 19 19 18 18
23 24 26 26 24 23 23 22 24 25 24 23 23 23 21 19 17 16 16 16 15 15 15 15 15 17 17 18 18 18 18 18 18 18 18 18 18 18 19 19 19 19 18 18 18 18 18 18 18
21 23 23 24 24 24 22 22 22 24 22 21 21 23 21 20 16 15 15 15 15 14 14 14 14 15 15 15 17 18 18 18 18 18 18 18 18 18 18 19 18 18 18 18 18 18 18 18 18
19 23 24 22 24 22 21 22 20 20 22 21 20 21 19 17 16 16 16 15 15 14 14 13 14 14 14 14 15 16 17 17 18 18 18 18 18 17 17 18 18 18 18 18 18 18 18 18 18
21 23 23 22 23 22 21 23 22 22 21 20 19 18 17 17 17 17 17 16 15 14 13 13 12 12 13 14 14 14 15 15 15 15 16 17 17 17 16 17 17 18 18 18 18 18 18 18 19
18 21 18 18 19 22 20 20 20 22 22 22 21 19 18 17 17 17 15 14 13 13 13 12 12 12 12 12 13 14 14 14 15 15 14 15 16 17 17 18 18 17 17 17 18 18 19 19 19
18 17 18 17 17 19 20 19 20 21 20 21 21 20 18 18 17 16 15 14 13 13 12 11 11 11 11 12 12 13 14 13 14 14 14 14 15 15 16 17 18 18 18 17 16 17 18 18 18
18 16 16 16 17 17 18 18 19 19 18 19 18 18 18 17 16 14 14 13 13 12 11 11 11 11 11 11 11 12 12 13 13 13 13 13 14 14 15 16 16 17 17 17 17 17 16 16 18
17 17 16 17 16 16 18 17 18 18 17 17 17 18 17 17 16 14 14 13 13 12 11 11 10 10 10 11 10 11 11 12 12 11 11 13 13 14 14 15 16 16 17 17 17 16 16 16 16
17 17 18 16 16 16 17 19 19 18 17 17 17 17 16 15 14 15 13 13 12 12 11 11 10 10 10 10 10 11 11 11 10 10 10 10 11 12 12 12 13 14 15 16 16 16 15 15 16
18 19 20 16 16 16 17 23 19 17 18 18 17 16 15 15 14 13 12 12 11 11 11 10 10 10 9 10 10 11 11 10 10 11 9 9 10 10 11 11 13 13 14 15 15 15 14 14 16
18 18 19 17 16 16 18 22 18 17 18 19 18 17 16 16 14 13 12 11 11 11 10 10 9 10 9 10 10 10 11 10 11 11 10 10 9 9 10 11 12 13 13 13 13 14 14 13 13
19 17 18 19 16 16 18 20 19 18 18 19 19 19 17 16 15 13 12 10 10 10 9 9 9 9 9 10 10 11 11 10 9 10 9 9 10 9 10 10 10 11 12 11 12 12 14 13 13
18 20 17 15 14 16 18 18 19 19 17 18 20 19 18 17 16 13 11 10 10 9 9 9 9 9 9 10 10 11 9 8 9 9 8 8 9 9 9 9 10 9 9 10 11 11 12 13 12
19 19 17 15 15 16 17 18 21 21 19 19 20 20 19 17 15 13 12 11 10 9 9 9 9 8 8 8 8 8 8 8 8 8 8 7 8 8 9 9 9 9 9 9 9 9 10 10 10
16 19 17 16 15 15 16 21 20 19 17 17 17 18 18 17 16 14 12 11 10 10 9 8 8 8 8 8 8 8 8 8 9 8 8 7 7 7 7 7 8 8 8 8 8 8 9 9 9
17 15 15 16 18 20 15 21 22 20 19 17 17 16 17 15 15 14 12 11 11 10 8 8 8 7 7 7 8 8 9 9 8 7 7 7 7 7 6 7 7 7 7 7 7 7 8 8 9
14 15 15 16 17 17 17 17 24 17 21 20 19 18 16 15 14 14 12 11 10 9 8 8 7 7 7 7 7 8 8 8 7 7 7 7 6 6 6 6 6 6 6 6 6 6 7 7 8
14 15 15 15 16 18 15 17 23 21 20 19 17 17 15 14 13 13 12 10 10 9 8 8 8 7 7 7 7 7 8 8 8 7 8 7 7 6 6 5 5 5 5 5 5 5 5 6 6
15 16 16 17 17 19 13 15 22 20 18 17 17 17 16 14 13 13 12 10 10 9 8 8 8 8 8 7 7 7 7 7 7 7 7 6 6 6 5 5 5 5 4 4 4 4 4 4 4
14 15 17 18 19 19 13 17 22 16 15 15 15 15 14 14 13 13 12 11 10 9 9 8 8 8 8 8 7 7 6 7 6 6 6 6 6 5 4 4 4 4 4 4 4 4 4 3 3
14 15 14 13 13 16 18 18 18 17 16 16 16 14 15 14 13 13 12 11 10 10 9 8 8 8 8 8 7 7 7 6 6 5 5 5 4 4 4 4 3 3 3 3 3 3 3 3 3
14 14 15 15 16 18 19 17 19 16 16 17 16 16 16 14 13 13 12 11 10 10 9 9 8 8 8 8 7 7 7 6 6 6 6 5 5 4 4 3 3 3 3 3 3 3 3 3 3
14 14 14 15 15 18 20 22 18 17 16 16 17 16 15 15 14 14 12 11 11 10 10 9 9 9 8 8 8 7 7 6 6 6 6 5 5 4 4 3 3 3 3 3 3 3 2 2 2
14 15 16 18 15 15 16 20 17 16 15 15 16 16 16 15 15 14 13 12 12 11 10 10 9 9 9 8 8 7 7 6 6 6 6 5 5 4 3 3 3 3 2 2 2 2 2 2 2

GFSSGP_925_temp_129.txt.gz
Temp
18 20 23 25 27 29 31 30 32 29 29 28 30 30 28 26 27 25 21 21 21 21 21 20 19 20 20 20 20 20 20 20 20 20 20 19 19 19 19 19 19 19 19 19 19 19 19 19 19
20 21 23 28 27 29 31 30 29 29 28 28 27 28 28 24 25 23 23 21 21 21 20 18 19 19 19 19 19 19 19 20 19 19 19 20 20 19 19 19 19 19 19 19 19 19 19 19 19
20 21 26 27 29 31 31 29 29 27 27 28 26 27 26 23 24 23 21 21 21 21 19 18 19 19 18 18 19 19 19 19 19 19 19 19 19 19 19 19 19 19 19 19 19 19 19 19 19
21 23 26 27 29 28 30 30 28 26 26 27 28 24 22 21 23 22 20 21 21 20 19 19 19 18 18 18 18 18 18 19 19 19 19 19 19 19 19 19 19 19 19 19 19 19 19 19 19
21 26 27 28 30 27 29 29 28 27 27 26 27 24 22 21 20 20 20 20 20 19 18 17 18 18 18 18 18 18 18 18 19 19 19 19 19 19 19 19 19 19 19 19 19 19 19 18 18
23 26 27 28 28 27 27 28 28 28 27 26 26 25 22 21 20 19 19 18 18 18 18 18 17 18 18 18 18 18 19 18 19 19 19 19 19 19 19 19 19 19 19 19 19 19 19 19 18
23 25 28 30 28 26 26 27 28 28 27 26 27 26 22 21 18 18 18 18 17 16 17 17 17 17 17 17 18 18 18 19 19 18 18 18 19 19 19 19 19 19 19 19 18 18 19 18 18
23 25 26 30 27 27 26 26 28 28 26 24 26 25 22 21 18 18 18 18 17 16 16 16 16 16 16 17 16 17 18 18 18 18 18 18 19 18 18 18 18 18 18 18 18 18 18 18 18
22 24 26 27 27 26 25 24 25 24 24 24 24 25 24 19 18 18 18 18 18 17 16 15 15 15 15 16 16 16 16 17 17 17 17 18 19 19 19 18 18 18 18 19 19 19 19 19 19
22 25 27 27 26 25 25 26 24 25 24 23 21 21 20 19 19 19 19 18 17 16 16 15 14 14 14 16 15 16 17 17 17 17 17 18 18 18 18 18 18 19 18 18 19 19 19 19 19
22 24 22 22 22 26 25 25 25 26 24 24 22 21 21 20 20 19 18 17 16 15 15 14 14 13 14 14 14 16 16 16 16 16 16 16 17 18 18 19 19 20 19 19 19 18 19 19 19
20 20 22 20 20 24 23 23 23 25 23 25 24 22 21 21 20 19 18 17 16 15 14 13 13 13 13 13 14 15 16 15 16 16 15 15 16 16 17 18 18 19 19 19 19 19 19 18 18
21 19 19 19 19 21 21 22 23 22 21 23 22 21 21 21 20 18 17 16 16 15 14 13 13 13 12 13 13 14 15 15 15 14 14 14 15 15 16 17 17 18 18 18 19 19 18 19 19
20 19 18 19 19 19 21 20 21 21 20 20 20 20 20 20 19 18 17 17 16 15 14 13 13 12 12 12 12 13 13 14 13 12 11 11 13 14 15 15 16 16 17 17 17 17 18 17 18
19 18 19 19 19 19 21 20 20 21 20 19 20 20 20 19 18 18 17 16 15 15 13 13 12 12 12 12 12 13 13 13 12 12 10 10 12 12 11 12 14 14 15 16 16 17 17 16 16
20 21 20 18 19 17 19 24 22 20 20 20 20 20 19 19 18 17 16 15 14 14 14 13 12 12 12 12 12 13 13 11 11 13 11 11 11 12 12 13 14 14 15 15 15 15 16 16 16
20 20 22 18 18 19 20 23 21 20 20 21 21 20 19 19 18 16 16 15 14 14 13 13 12 12 12 12 12 12 12 11 12 12 12 12 12 11 12 11 12 11 13 14 13 14 14 15 15
20 21 21 20 18 18 20 22 21 20 20 21 22 22 20 20 18 17 16 14 13 13 12 12 12 12 12 12 12 13 11 11 11 11 11 11 11 11 11 10 10 10 11 12 13 13 13 12 13
22 22 21 19 17 19 21 22 23 22 20 21 22 23 22 20 19 17 15 14 13 12 12 12 12 11 11 12 12 13 10 9 9 10 10 9 10 10 10 11 11 10 10 11 11 11 12 12 11
22 22 20 18 17 19 21 21 23 23 23 22 22 23 23 22 20 17 15 14 13 13 12 11 11 11 11 11 11 11 9 9 10 10 9 9 9 9 10 9 10 10 10 10 10 10 10 10 10
22 22 19 17 18 18 19 22 23 24 24 23 23 23 23 22 20 19 16 14 14 13 12 11 10 10 10 9 10 10 9 10 11 10 9 8 8 8 8 8 8 8 9 9 9 9 9 10 11
19 19 19 19 20 21 20 22 24 25 22 21 21 20 20 20 20 19 17 15 14 13 11 10 10 9 9 9 10 10 11 12 10 9 9 8 8 7 7 7 8 8 8 8 8 8 8 9 10
17 18 19 20 21 20 20 20 25 22 23 23 22 21 20 19 18 17 17 15 14 12 11 10 10 9 9 9 9 10 10 10 9 9 9 8 8 7 7 7 7 7 7 7 6 6 7 8 8
17 18 19 20 20 19 19 20 25 25 23 21 20 21 19 18 17 16 15 14 13 12 11 10 10 9 9 9 9 9 9 10 10 9 9 9 8 8 7 6 6 6 6 6 6 6 6 6 7
17 19 16 17 17 20 17 18 24 23 21 20 19 19 19 17 17 16 15 14 13 12 11 10 10 10 10 9 9 9 9 9 9 9 9 8 8 7 6 6 6 6 5 5 5 5 5 5 5
17 18 18 18 20 20 16 19 23 20 19 18 18 18 17 17 17 16 15 14 13 12 12 11 10 10 10 10 9 9 8 8 8 8 8 8 8 7 6 5 5 5 5 5 5 5 5 5 4
16 17 17 18 17 19 22 21 21 20 19 18 18 17 18 17 17 16 15 14 13 13 12 11 11 10 10 10 10 9 9 8 8 8 7 7 7 6 6 5 5 5 4 4 4 4 4 4 4
16 17 17 17 18 20 21 21 21 18 18 19 18 19 18 18 17 16 15 15 14 13 12 11 11 11 10 10 10 10 9 9 8 8 8 8 7 6 5 5 5 5 4 4 4 4 4 4 4
16 17 17 18 18 20 22 22 20 19 18 19 19 18 18 18 17 17 16 15 14 13 12 12 11 11 11 11 10 10 9 9 8 8 8 8 7 7 6 5 5 5 5 5 4 4 4 4 4
16 18 19 19 18 19 19 21 19 19 18 18 19 19 19 19 18 18 17 17 16 15 14 13 12 12 11 11 11 10 10 9 8 8 8 8 7 6 5 5 5 5 4 4 4 4 4 4 3